Timestamp[UTC];2m Lufttemperatur [degC] (tas);Stations-Luftdruck [Pa] (ps);relative Luftfeuchtigkeit [%] (hurs);spezifische Luftfeuchtigkeit [kg/kg] (huss);Niederschlagsmenge [mm] (pr);Windgeschwindigkeit in 2m [m/s] (sfcWind);Windrichtung [deg];maximale Windgeschwindigkeit [m/s] (wsgsmax);u-Windkomponente [m/s] (uas);v-Windkomponente [m/s] (vas);Sonneneinstrahlung [W/m2];Blitzrate [n];Blitzentfernung [km];Bodenfeuchte in 5cm Tiefe [vol%];Bodenfeuchte in 15cm Tiefe [vol%];Bodenfeuchte in 30cm Tiefe [vol%];Bodenfeuchte in 60cm Tiefe [vol%];Bodentemperatur in 5cm Tiefe [degC];Bodentemperatur in 15cm Tiefe [degC];Bodentemperatur in 30cm Tiefe [degC];Bodentemperatur in 60cm Tiefe [degC];Matrixpotential in 30cm Tiefe [kPa];Bodenfeuchte aus CRNS [vol%] (mrso);Neutronen Anzahl [N/h]
2021-07-01 00:00:00;13,0;100090;91;0,0085;0,14;2,8;285;4,4;0,74;-2,68;0;0;0;33,1;32,4;24,5;26,8;17,0;17,7;17,6;16,4;-16,8;45,0;1273
2021-07-01 01:00:00;12,9;100098;92;0,0085;0,04;2,9;282;4,5;0,62;-2,78;0;0;0;33,1;32,4;24,5;26,8;16,9;17,5;17,5;16,4;-16,6;44,9;1318
2021-07-01 02:00:00;12,8;100098;91;0,0084;0,0;2,7;286;4,3;0,72;-2,57;0;0;0;33,0;32,4;24,5;26,8;16,8;17,4;17,5;16,4;-16,4;44,4;1270
2021-07-01 03:00:00;12,8;100095;91;0,0084;0,0;2,5;271;3,9;0,08;-2,45;1;0;0;32,9;32,4;24,5;26,8;16,6;17,3;17,4;16,4;-16,3;44,1;1314
2021-07-01 04:00:00;12,8;100095;91;0,0084;0,1;3,2;282;5,0;0,72;-3,04;14;0;0;32,8;32,3;24,5;26,8;16,5;17,2;17,4;16,4;-16,2;43,6;1273
2021-07-01 05:00:00;12,4;100135;91;0,0082;0,15;4,0;288;6,8;1,31;-3,79;30;0;0;32,8;32,3;24,5;26,8;16,4;17,1;17,3;16,4;-16,1;43,3;1276
2021-07-01 06:00:00;12,7;100145;90;0,0082;0,0;3,4;282;5,6;0,72;-3,31;72;0;0;32,8;32,3;24,5;26,8;16,3;17,0;17,2;16,4;-16,0;42,9;1307
2021-07-01 07:00:00;13,0;100165;89;0,0083;0,0;3,4;286;5,2;0,88;-3,24;108;0;0;32,7;32,3;24,4;26,8;16,3;16,9;17,2;16,4;-15,9;42,5;1297
2021-07-01 08:00:00;13,4;100178;86;0,0083;0,0;4,2;289;6,9;1,28;-3,98;136;0;0;32,7;32,3;24,4;26,9;16,3;16,8;17,1;16,4;-15,9;42,4;1320
2021-07-01 09:00:00;13,8;100188;83;0,0082;0,0;4,7;280;7,2;0,76;-4,56;226;0;0;32,6;32,3;24,4;26,9;16,3;16,8;17,1;16,3;-15,8;42,3;1234
2021-07-01 10:00:00;14,3;100208;80;0,0082;0,0;4,6;285;7,6;1,08;-4,39;232;0;0;32,5;32,3;24,4;26,9;16,5;16,8;17,0;16,3;-15,8;42,0;1439
2021-07-01 11:00:00;14,5;100228;78;0,008;0,0;5,8;270;9,0;-0,01;-5,81;268;0;0;32,4;32,2;24,4;26,9;16,6;16,8;17,0;16,3;-15,8;42,2;1341
2021-07-01 12:00:00;15,0;100240;75;0,008;0,0;4,8;273;8,2;0,29;-4,82;238;0;0;32,2;32,2;24,4;26,9;16,8;16,8;16,9;16,3;-15,8;41,9;1318
2021-07-01 13:00:00;14,9;100283;76;0,008;0,0;5,1;274;7,6;0,35;-5,04;226;0;0;32,1;32,2;24,3;26,9;16,9;16,9;16,9;16,3;-15,7;41,7;1366
2021-07-01 14:00:00;14,9;100290;75;0,0079;0,0;3,9;280;7,0;0,55;-3,73;111;0;0;32,0;32,1;24,3;26,9;16,8;16,9;16,9;16,3;-15,7;41,4;1289
2021-07-01 15:00:00;14,7;100305;74;0,0077;0,0;3,8;281;6,1;0,74;-3,7;92;0;0;31,9;32,1;24,3;26,9;16,7;16,9;16,9;16,3;-15,7;41,2;1363
2021-07-01 16:00:00;14,6;100320;78;0,0081;0,0;2,5;305;4,3;1,36;-1,91;98;0;0;31,9;32,1;24,3;26,9;16,7;16,9;16,8;16,2;-15,7;41,3;1299
2021-07-01 17:00:00;14,0;100325;82;0,0082;0,0;2,3;318;3,6;1,74;-1,54;84;0;0;31,8;32,1;24,3;26,9;16,6;16,8;16,8;16,2;-15,7;41,0;1335
2021-07-01 18:00:00;13,5;100325;86;0,0082;0,0;1,3;342;2,4;1,23;-0,43;29;0;0;31,7;32,0;24,3;26,9;16,5;16,8;16,8;16,2;-15,7;40,7;1298
2021-07-01 19:00:00;13,1;100365;90;0,0084;0,05;0,7;80;1,4;0,12;0,52;16;0;0;31,7;32,0;24,3;26,9;16,3;16,7;16,8;16,2;-15,7;40,8;1282
2021-07-01 20:00:00;13,1;100402;91;0,0085;0,0;0,8;150;1,3;-0,65;0,36;0;0;0;31,7;32,0;24,3;26,9;16,2;16,7;16,7;16,2;-15,7;41,0;1258
2021-07-01 21:00:00;13,2;100430;92;0,0086;0,0;0,7;194;1,3;-0,72;-0,18;0;0;0;31,6;32,0;24,3;26,9;16,1;16,6;16,7;16,2;-15,7;41,3;1309
2021-07-01 22:00:00;13,2;100440;92;0,0087;0,0;0,7;208;1,2;-0,63;-0,34;0;0;0;31,6;32,0;24,3;26,9;16,0;16,5;16,7;16,1;-15,7;40,9;1247
2021-07-01 23:00:00;13,1;100425;93;0,0087;0,0;0,6;210;1,1;-0,47;-0,29;0;0;0;31,6;32,0;24,3;26,9;16,0;16,5;16,7;16,1;-15,7;41,5;1246
2021-07-02 00:00:00;12,8;100420;94;0,0086;0,02;0,5;229;1,1;-0,33;-0,38;0;0;0;31,5;31,9;24,2;26,9;15,9;16,4;16,6;16,1;-15,7;41,8;1262
2021-07-02 01:00:00;12,2;100402;93;0,0082;0,0;0,5;236;1,2;-0,27;-0,42;0;0;0;31,5;31,9;24,2;26,9;15,7;16,3;16,6;16,1;-15,7;42,2;1336
2021-07-02 02:00:00;11,6;100390;93;0,0079;0,0;0,5;242;1,4;-0,22;-0,43;0;0;0;31,5;31,9;24,2;26,9;15,6;16,3;16,5;16,1;-15,7;42,6;1288
2021-07-02 03:00:00;9,8;100382;92;0,007;0,02;0,5;234;1,1;-0,3;-0,4;2;0;0;31,4;31,9;24,2;26,9;15,3;16,1;16,5;16,1;-15,7;42,6;1279
2021-07-02 04:00:00;9,8;100395;93;0,007;0,02;0,7;223;1,7;-0,54;-0,48;38;0;0;31,4;31,9;24,2;27,0;15,0;16,0;16,5;16,1;-15,7;42,9;1295
2021-07-02 05:00:00;12,5;100365;94;0,0085;0,02;1,2;226;2,6;-0,84;-0,92;249;0;0;31,3;31,9;24,2;27,0;15,0;15,9;16,4;16,0;-15,7;43,5;1296
2021-07-02 06:00:00;14,4;100360;85;0,0087;0,0;1,4;252;2,8;-0,4;-1,33;220;0;0;31,3;31,9;24,2;27,0;15,2;15,8;16,3;16,0;-15,7;44,0;1273
2021-07-02 07:00:00;16,1;100340;74;0,0085;0,0;1,1;213;2,3;-0,74;-0,57;439;0;0;31,2;31,8;24,2;27,0;15,5;15,8;16,3;16,0;-15,8;44,0;1239
2021-07-02 08:00:00;17,6;100340;63;0,0079;0,0;1,7;241;3,9;0,53;-1,15;466;0;0;31,1;31,8;24,2;27,0;16,2;15,9;16,2;16,0;-15,8;43,9;1246
2021-07-02 09:00:00;17,6;100365;62;0,0078;0,0;1,5;328;3,0;1,22;-0,79;398;0;0;31,0;31,7;24,2;26,9;16,6;16,0;16,2;16,0;-15,8;43,8;1289
2021-07-02 10:00:00;19,2;100340;60;0,0083;0,0;1,5;136;4,1;0,55;-0,37;730;0;0;30,9;31,7;24,1;26,9;17,6;16,3;16,2;15,9;-15,9;44,0;1297
2021-07-02 11:00:00;20,2;100325;55;0,0081;0,0;1,7;98;4,2;0,44;0,06;763;0;0;30,7;31,6;24,1;26,9;18,7;16,7;16,2;15,9;-16,0;43,9;1274
2021-07-02 12:00:00;21,0;100288;52;0,008;0,0;2,2;310;4,9;1,32;-1,56;616;0;0;30,5;31,6;24,1;26,9;19,5;17,2;16,2;15,9;-16,0;43,8;1251
2021-07-02 13:00:00;21,0;100275;54;0,0084;0,0;2,6;332;6,2;2,32;-1,21;469;0;0;30,3;31,5;24,0;26,9;19,8;17,6;16,2;15,9;-16,1;43,8;1296
2021-07-02 14:00:00;21,6;100280;55;0,0089;0,0;2,1;334;5,1;1,89;-0,91;479;0;0;30,2;31,5;24,0;26,9;19,6;17,9;16,3;15,9;-16,2;44,2;1286
2021-07-02 15:00:00;21,6;100280;56;0,009;0,0;1,9;338;4,6;1,71;-0,71;321;0;0;30,0;31,4;24,0;26,9;19,5;18,1;16,5;15,9;-16,2;44,1;1307
2021-07-02 16:00:00;22,0;100290;56;0,0093;0,0;2,1;351;4,5;2,08;-0,34;392;0;0;29,9;31,4;23,9;26,9;19,4;18,2;16,6;15,9;-16,2;44,0;1203
2021-07-02 17:00:00;21,6;100272;60;0,0096;0,0;1,7;192;3,5;1,62;0,29;242;0;0;29,8;31,4;23,9;26,9;19,2;18,3;16,7;15,8;-16,2;44,3;1239
2021-07-02 18:00:00;20,6;100265;64;0,0097;0,0;1,1;40;2,4;0,8;0,7;124;0;0;29,7;31,3;23,9;26,9;19,0;18,3;16,8;15,8;-16,2;44,6;1296
2021-07-02 19:00:00;18,9;100292;72;0,0097;0,0;0,5;96;1,2;0,19;0,27;27;0;0;29,7;31,3;23,9;26,9;18,7;18,3;16,9;15,9;-16,2;44,3;1313
2021-07-02 20:00:00;15,7;100352;82;0,0091;0,0;0,7;217;1,3;-0,62;-0,36;1;0;0;29,6;31,3;23,9;26,9;18,2;18,2;16,9;15,9;-16,2;44,1;1264
2021-07-02 21:00:00;14,1;100365;87;0,0087;0,0;0,7;218;1,4;-0,54;-0,41;0;0;0;29,6;31,3;23,9;26,9;17,7;18,0;17,0;15,9;-16,2;44,2;1290
2021-07-02 22:00:00;13,2;100385;90;0,0085;0,0;0,5;236;1,0;-0,29;-0,44;0;0;0;29,6;31,2;23,9;26,9;17,3;17,8;17,0;15,9;-16,1;44,5;1274
2021-07-02 23:00:00;12,4;100372;92;0,0082;0,0;0,4;217;1,0;-0,32;-0,25;0;0;0;29,5;31,2;23,9;26,9;16,9;17,6;17,0;15,9;-16,2;44,9;1281
2021-07-03 00:00:00;12,1;100345;92;0,008;0,0;0,3;229;0,8;-0,21;-0,23;0;0;0;29,5;31,2;23,9;27,0;16,5;17,3;17,0;15,9;-16,2;45,2;1289
2021-07-03 01:00:00;11,5;100350;93;0,0079;0,0;0,6;201;1,2;-0,55;-0,2;0;0;0;29,5;31,2;23,9;27,0;16,2;17,1;17,0;15,9;-16,2;45,0;1288
2021-07-03 02:00:00;11,2;100340;94;0,0078;0,0;0,5;209;1,2;-0,34;-0,18;0;0;0;29,4;31,2;23,9;27,0;15,9;16,9;16,9;15,9;-16,2;45,1;1313
2021-07-03 03:00:00;11,3;100300;93;0,0078;0,0;0,8;192;1,4;-0,81;-0,19;11;0;0;29,4;31,1;23,9;27,0;15,7;16,7;16,9;16,0;-16,2;45,5;1301
2021-07-03 04:00:00;12,1;100262;96;0,0084;0,0;0,6;212;1,4;-0,54;-0,34;49;0;0;29,4;31,1;23,9;27,0;15,6;16,5;16,8;16,0;-16,2;45,7;1249
2021-07-03 05:00:00;14,4;100235;97;0,0099;0,0;0,4;152;1,1;-0,27;0,19;209;0;0;29,4;31,1;23,8;27,0;15,5;16,4;16,8;16,0;-16,2;45,7;1258
2021-07-03 06:00:00;17,3;100180;86;0,0106;0,0;0,9;87;1,7;0,06;0,88;336;0;0;29,3;31,1;23,8;27,0;15,8;16,3;16,7;16,0;-16,3;45,6;1334
2021-07-03 07:00:00;20,2;100155;75;0,0111;0,0;1,3;94;2,4;-0,12;1,28;477;0;0;29,3;31,1;23,8;27,0;16,2;16,3;16,6;16,0;-16,3;45,8;1274
2021-07-03 08:00:00;22,4;100092;66;0,0111;0,0;1,2;91;2,8;-0,06;1,21;593;0;0;29,2;31,0;23,8;27,0;17,1;16,4;16,5;16,0;-16,4;45,7;1244
2021-07-03 09:00:00;23,8;100053;55;0,0101;0,0;1,2;170;2,8;-0,49;0,21;712;0;0;29,1;31,0;23,8;27,0;18,2;16,7;16,5;16,0;-16,4;45,7;1242
2021-07-03 10:00:00;24,7;99992;51;0,0099;0,0;1,1;133;3,1;0,42;0,14;784;0;0;28,9;30,9;23,7;27,0;19,6;17,1;16,5;16,0;-16,6;45,6;1265
2021-07-03 11:00:00;25,0;99945;50;0,01;0,0;1,2;70;2,8;0,4;1,09;625;0;0;28,7;30,9;23,7;27,0;20,8;17,7;16,5;15,9;-16,7;45,4;1237
2021-07-03 12:00:00;25,0;99902;52;0,0102;0,0;0,7;59;1,6;0,26;0,43;436;0;0;28,6;30,8;23,6;27,0;21,1;18,3;16,6;15,9;-16,8;45,7;1304
2021-07-03 13:00:00;24,0;99910;55;0,0102;0,05;1,6;286;2,7;0,52;-1,46;104;0;0;28,5;30,8;23,6;27,0;20,9;18,8;16,7;15,9;-16,8;45,7;1311
2021-07-03 14:00:00;21,3;99943;74;0,0117;0,78;1,3;170;3,1;0,68;0,31;118;0;0;28,4;30,8;23,6;27,0;20,4;18,9;16,8;15,9;-16,8;45,8;1214
2021-07-03 15:00:00;20,2;99960;76;0,0112;0,0;1,6;48;3,7;1,01;1,15;115;0;0;28,4;30,8;23,6;27,0;20,0;18,9;16,9;15,9;-16,7;46,1;1287
2021-07-03 16:00:00;19,3;99945;78;0,011;0,0;1,3;65;2,8;0,6;1,06;66;0;0;28,4;30,8;23,6;27,0;19,6;18,9;17,0;15,9;-16,7;46,2;1219
2021-07-03 17:00:00;19,0;99928;80;0,0111;0,0;0,5;186;1,1;-0,41;0,01;44;0;0;28,4;30,7;23,6;27,0;19,4;18,8;17,1;15,9;-16,7;45,9;1267
2021-07-03 18:00:00;19,0;99902;82;0,0113;0,0;0,5;144;1,0;-0,38;0,22;50;0;0;28,4;30,7;23,6;27,0;19,2;18,7;17,2;15,9;-16,7;45,7;1288
2021-07-03 19:00:00;18,7;99900;84;0,0114;0,0;0,7;174;1,3;-0,5;0,14;10;0;0;28,5;30,7;23,6;27,0;19,0;18,6;17,3;15,9;-16,7;45,9;1343
2021-07-03 20:00:00;18,2;99940;86;0,0113;0,0;0,4;248;0,7;-0,12;-0,29;0;0;0;28,5;30,7;23,6;27,1;18,8;18,6;17,3;15,9;-16,7;46,0;1290
2021-07-03 21:00:00;17,4;99948;88;0,0109;0,0;0,4;219;0,9;-0,34;-0,26;0;0;0;28,5;30,7;23,6;27,1;18,5;18,4;17,4;16,0;-16,7;45,7;1344
2021-07-03 22:00:00;16,9;99923;90;0,0109;0,11;0,5;196;0,8;-0,46;-0,14;0;0;0;28,5;30,6;23,6;27,1;18,3;18,3;17,4;16,0;-16,7;45,7;1334
2021-07-03 23:00:00;16,8;99890;92;0,0109;0,02;0,4;204;1,0;0,07;-0,29;0;0;0;28,5;30,6;23,6;27,1;18,1;18,2;17,4;16,0;-16,7;45,5;1261
2021-07-04 00:00:00;16,5;99850;92;0,0108;0,0;0,4;164;0,7;-0,26;0,13;0;0;0;28,5;30,6;23,6;27,1;18,0;18,1;17,4;16,0;-16,7;45,0;1310
2021-07-04 01:00:00;16,2;99822;92;0,0107;0,02;0,7;178;1,2;-0,65;0,02;0;0;0;28,5;30,6;23,6;27,1;17,8;18,0;17,4;16,0;-16,7;45,3;1299
2021-07-04 02:00:00;16,0;99800;93;0,0106;0,0;0,6;237;1,2;-0,29;-0,45;0;0;0;28,5;30,6;23,6;27,1;17,7;17,9;17,3;16,1;-16,7;46,2;1300
2021-07-04 03:00:00;15,9;99790;92;0,0105;0,0;0,6;210;1,1;-0,51;-0,31;2;0;0;28,5;30,5;23,6;27,2;17,5;17,8;17,3;16,1;-16,7;45,6;1335
2021-07-04 04:00:00;16,2;99788;92;0,0106;0,0;0,8;216;1,4;-0,64;-0,41;16;0;0;28,5;30,5;23,6;27,2;17,4;17,7;17,3;16,1;-16,7;45,7;1342
2021-07-04 05:00:00;18,0;99755;89;0,0115;0,0;0,9;234;2,0;-0,51;-0,69;128;0;0;28,5;30,5;23,6;27,2;17,4;17,6;17,2;16,1;-16,8;45,7;1326
2021-07-04 06:00:00;19,4;99705;84;0,0118;0,0;1,4;240;2,7;-0,53;-1,17;231;0;0;28,4;30,5;23,6;27,2;17,7;17,6;17,2;16,1;-16,8;45,8;1345
2021-07-04 07:00:00;20,0;99695;78;0,0114;0,0;0,7;142;1,6;-0,19;0,07;182;0;0;28,4;30,5;23,5;27,2;18,0;17,6;17,2;16,1;-16,8;45,9;1322
2021-07-04 08:00:00;20,8;99638;75;0,0116;0,0;1,0;90;2,2;0,05;0,9;292;0;0;28,4;30,5;23,5;27,2;18,4;17,7;17,2;16,1;-16,9;46,4;1334
2021-07-04 09:00:00;20,7;99575;74;0,0113;0,09;1,2;170;2,3;-0,23;0,51;227;0;0;28,3;30,4;23,5;27,2;18,8;17,9;17,1;16,1;-16,9;46,0;1291
2021-07-04 10:00:00;20,8;99508;77;0,0119;0,0;2,4;120;4,3;-1,12;2,1;346;1;9;28,3;30,4;23,5;27,2;19,2;18,0;17,1;16,1;-16,9;46,3;1332
2021-07-04 11:00:00;21,1;99430;78;0,0123;0,0;3,3;109;5,8;-1,08;3,03;423;13;14;28,2;30,4;23,5;27,2;19,8;18,3;17,2;16,1;-17,0;46,4;1372
2021-07-04 12:00:00;17,8;99465;82;0,0105;2,4;5,7;259;10,6;1,05;-3,77;119;82;8;28,2;30,4;23,5;27,2;20,1;18,5;17,2;16,1;-17,0;46,2;1293
2021-07-04 13:00:00;14,8;99580;91;0,0096;4,37;3,6;299;5,6;1,42;-3,2;38;7;2;33,5;30,4;23,5;27,2;19,3;18,7;17,2;16,1;-17,0;46,4;1193
2021-07-04 14:00:00;nan;nan;nan;nan;0,0;nan;nan;nan;nan;nan;nan;0;nan;36,0;30,4;23,5;27,2;18,7;18,6;17,3;16,1;-17,0;nan;nan
2021-07-04 15:00:00;nan;nan;nan;nan;0,0;nan;nan;nan;nan;nan;nan;0;nan;36,0;30,6;23,5;27,3;18,5;18,4;17,3;16,1;-17,0;nan;nan
2021-07-04 16:00:00;nan;nan;nan;nan;0,0;nan;nan;nan;nan;nan;nan;0;nan;35,6;30,9;23,5;27,3;18,5;18,3;17,4;16,1;-17,0;nan;nan
2021-07-04 17:00:00;nan;nan;nan;nan;0,0;nan;nan;nan;nan;nan;nan;0;nan;35,3;31,2;23,5;27,3;18,5;18,3;17,4;16,1;-17,0;nan;nan
2021-07-04 18:00:00;nan;nan;nan;nan;0,0;nan;nan;nan;nan;nan;nan;0;nan;35,0;31,3;23,5;27,3;18,3;18,2;17,4;16,1;-17,0;nan;nan
2021-07-04 19:00:00;nan;nan;nan;nan;0,0;nan;nan;nan;nan;nan;nan;0;nan;34,7;31,5;23,5;27,3;18,1;18,2;17,4;16,1;-17,0;nan;nan
2021-07-04 20:00:00;14,1;99653;93;0,0094;0,0;nan;nan;nan;nan;nan;1;0;0;34,4;31,6;23,5;27,3;17,8;18,1;17,4;16,1;-17,0;46,4;1364
2021-07-04 21:00:00;13,6;99680;93;0,0091;0,0;nan;nan;nan;nan;nan;0;0;0;34,2;31,6;23,5;27,3;17,4;17,9;17,4;16,2;-17,0;46,5;1295
2021-07-04 22:00:00;13,0;99667;93;0,0087;0,0;0,5;207;0,7;-0,45;-0,23;0;0;0;34,0;31,7;23,5;27,3;17,1;17,8;17,4;16,2;-17,0;47,0;1264
2021-07-04 23:00:00;12,4;99658;94;0,0085;0,0;0,6;203;0,9;-0,53;-0,17;0;0;0;33,8;31,7;23,5;27,4;16,8;17,5;17,3;16,2;-17,0;46,8;1301
2021-07-05 00:00:00;12,6;99642;93;0,0085;0,0;0,8;188;1,2;-0,77;-0,12;0;0;0;33,7;31,7;23,5;27,4;16,5;17,4;17,3;16,2;-17,0;47,0;1308
2021-07-05 01:00:00;12,9;99613;94;0,0088;0,02;0,8;182;1,1;-0,8;-0,06;0;0;0;33,5;31,8;23,5;27,4;16,3;17,2;17,3;16,2;-17,0;47,4;1299
2021-07-05 02:00:00;14,3;99565;92;0,0095;0,05;nan;nan;nan;nan;nan;0;0;0;33,4;31,8;23,5;27,4;16,3;17,0;17,2;16,2;-17,0;47,5;1407
2021-07-05 03:00:00;15,2;99540;94;0,0101;0,43;nan;nan;nan;nan;nan;0;0;0;33,4;31,8;23,5;27,4;16,3;16,9;17,1;16,2;-17,1;47,6;1325
2021-07-05 04:00:00;14,6;99610;98;0,0102;2,77;nan;nan;nan;nan;nan;2;0;0;36,7;32,0;23,5;27,4;16,3;16,8;17,1;16,2;-17,1;47,9;1345
2021-07-05 05:00:00;nan;nan;nan;nan;0,0;nan;nan;nan;nan;nan;nan;0;nan;36,4;32,4;23,5;27,4;16,3;16,8;17,0;16,2;-17,1;nan;nan
2021-07-05 06:00:00;nan;nan;nan;nan;0,0;nan;nan;nan;nan;nan;nan;0;nan;36,1;32,7;23,5;27,4;16,4;16,7;16,9;16,2;-17,2;nan;nan
2021-07-05 07:00:00;nan;nan;nan;nan;0,0;nan;nan;nan;nan;nan;nan;0;nan;35,8;32,8;23,5;27,4;16,7;16,7;16,9;16,2;-17,1;nan;nan
2021-07-05 08:00:00;16,4;99597;86;0,01;0,0;1,2;186;2,0;-1,18;-0,1;293;0;0;35,5;32,9;23,5;27,4;17,0;16,8;16,8;16,2;-17,2;47,8;1323
2021-07-05 09:00:00;17,3;99583;80;0,01;0,15;1,1;176;2,8;-1,0;0,04;323;0;0;35,2;32,9;23,5;27,4;17,4;16,9;16,8;16,1;-17,2;48,0;1305
2021-07-05 10:00:00;17,6;99555;68;0,0086;0,02;0,9;138;2,1;-0,14;0,22;360;0;0;35,0;32,9;23,5;27,4;17,7;17,0;16,8;16,1;-17,2;47,7;1315
2021-07-05 11:00:00;17,6;99532;73;0,0092;0,0;1,3;137;3,2;-0,88;0,64;226;0;0;34,7;32,9;23,5;27,4;17,9;17,2;16,7;16,1;-17,2;46,6;1323
2021-07-05 12:00:00;17,8;99500;77;0,0098;0,0;1,9;134;3,7;-1,28;1,35;244;0;0;34,4;32,9;23,5;27,4;18,0;17,3;16,8;16,1;-17,2;47,2;1267
2021-07-05 13:00:00;18,4;99485;77;0,0103;0,0;2,4;178;4,2;-2,38;0,06;262;0;0;34,2;32,9;23,5;27,4;18,2;17,5;16,8;16,1;-17,2;47,1;1387
2021-07-05 14:00:00;19,5;99445;77;0,0109;0,0;2,6;180;4,6;-2,54;-0,05;324;0;0;34,0;32,8;23,5;27,4;18,5;17,6;16,8;16,1;-17,2;46,8;1307
2021-07-05 15:00:00;19,8;99408;78;0,0113;0,02;2,2;187;4,2;-2,17;-0,19;209;0;0;33,9;32,8;23,5;27,4;18,7;17,7;16,8;16,1;-17,1;46,5;1304
2021-07-05 16:00:00;20,7;99365;75;0,0115;0,0;1,3;318;2,9;0,99;-0,71;202;0;0;33,7;32,8;23,5;27,4;18,8;17,9;16,9;16,1;-17,1;46,0;1329
2021-07-05 17:00:00;20,0;99393;80;0,0117;0,0;2,3;332;3,8;2,02;-1,05;160;0;0;33,5;32,8;23,5;27,4;18,8;18,0;16,9;16,0;-17,1;45,9;1316
2021-07-05 18:00:00;19,7;99430;80;0,0116;0,14;1,5;296;2,6;0,7;-1,15;46;0;0;33,4;32,8;23,6;27,5;18,8;18,1;17,0;16,1;-17,0;46,7;1238
2021-07-05 19:00:00;18,1;99468;89;0,0116;0,25;0,9;206;1,7;-0,8;-0,37;5;0;0;33,4;32,8;23,6;27,5;18,6;18,1;17,0;16,1;-17,0;47,0;1347
2021-07-05 20:00:00;17,6;99480;89;0,0112;0,02;1,3;192;2,2;-1,25;-0,28;0;0;0;33,3;32,8;23,6;27,5;18,4;18,1;17,1;16,1;-16,9;47,2;1342
2021-07-05 21:00:00;17,3;99462;90;0,0112;0,0;1,0;189;1,6;-0,93;-0,13;0;0;0;33,2;32,8;23,6;27,5;18,2;18,0;17,1;16,1;-16,9;46,7;1333
2021-07-05 22:00:00;17,2;99430;90;0,011;0,0;1,1;171;1,9;-1,1;0,15;0;0;0;33,1;32,7;23,7;27,5;18,0;18,0;17,1;16,1;-16,8;46,9;1395
2021-07-05 23:00:00;16,8;99370;90;0,0108;0,0;1,3;166;2,2;-1,21;0,3;0;0;0;33,0;32,7;23,7;27,5;17,9;17,9;17,2;16,1;-16,8;46,5;1287
2021-07-06 00:00:00;15,8;99330;90;0,0101;0,0;1,0;156;1,9;-0,91;0,38;0;0;0;33,0;32,7;23,7;27,5;17,7;17,8;17,2;16,1;-16,7;46,4;1356
2021-07-06 01:00:00;15,2;99285;91;0,0099;0,02;0,6;269;1,1;-0,16;-0,05;0;0;0;32,9;32,7;23,7;27,5;17,4;17,7;17,2;16,1;-16,7;46,4;1358
2021-07-06 02:00:00;16,1;99232;89;0,0103;0,0;1,1;173;2,3;-0,91;-0,18;0;0;0;32,8;32,7;23,8;27,6;17,3;17,6;17,2;16,1;-16,6;46,4;1394
2021-07-06 03:00:00;17,1;99198;86;0,0105;0,0;0,9;194;2,2;-0,87;-0,21;0;0;0;32,8;32,7;23,8;27,6;17,2;17,5;17,1;16,1;-16,6;46,0;1431
2021-07-06 04:00:00;18,3;99115;80;0,0107;0,0;4,5;192;8,4;-4,39;-0,9;10;0;0;32,7;32,6;23,8;27,6;17,2;17,4;17,1;16,1;-16,6;45,7;1369
2021-07-06 05:00:00;18,0;99245;84;0,011;0,52;2,9;218;7,3;-2,3;-1,59;15;0;0;32,7;32,6;23,8;27,6;17,2;17,4;17,1;16,1;-16,5;45,5;1307
2021-07-06 06:00:00;17,8;99270;88;0,0113;0,37;2,5;210;5,3;-2,2;-1,13;43;0;0;32,7;32,6;23,8;27,6;17,2;17,3;17,0;16,1;-16,5;45,4;1304
2021-07-06 07:00:00;17,9;99108;86;0,0112;0,02;3,4;173;6,9;-3,36;0,48;102;0;0;32,8;32,6;23,8;27,6;17,3;17,3;17,0;16,1;-16,5;44,6;1368
2021-07-06 08:00:00;18,8;99182;83;0,0114;0,0;2,8;199;6,3;-2,66;-0,9;164;0;0;32,9;32,7;23,8;27,6;17,4;17,3;17,0;16,1;-16,5;44,7;1448
2021-07-06 09:00:00;18,9;99280;77;0,0105;0,0;3,1;213;8,9;-2,58;-1,66;192;0;0;32,8;32,7;23,8;27,6;17,6;17,3;17,0;16,1;-16,4;44,7;1316
2021-07-06 10:00:00;19,8;99322;69;0,01;0,0;3,4;217;10,0;-2,7;-2,03;524;0;0;32,7;32,7;23,8;27,6;17,8;17,4;17,0;16,1;-16,4;44,8;1411
2021-07-06 11:00:00;21,3;99325;59;0,0094;0,0;3,7;220;9,3;-2,78;-2,23;680;0;0;32,6;32,6;23,8;27,6;18,8;17,5;17,0;16,1;-16,5;45,0;1353
2021-07-06 12:00:00;21,4;99378;55;0,0088;0,0;3,4;215;8,7;-2,8;-1,92;606;0;0;32,4;32,6;23,8;27,6;19,6;17,9;17,0;16,1;-16,5;44,5;1299
2021-07-06 13:00:00;21,2;99415;53;0,0084;0,0;3,4;232;10,3;-2,05;-2,71;431;0;0;32,2;32,5;23,8;27,6;19,8;18,2;17,0;16,1;-16,5;44,5;1418
2021-07-06 14:00:00;20,7;99468;56;0,0086;0,0;2,9;214;7,7;-2,42;-1,64;321;0;0;32,0;32,5;23,8;27,6;19,7;18,4;17,0;16,1;-16,5;44,3;1401
2021-07-06 15:00:00;21,2;99485;52;0,0083;0,0;3,6;238;9,1;-1,82;-2,89;397;0;0;31,8;32,4;23,8;27,5;19,6;18,6;17,1;16,1;-16,5;44,3;1378
2021-07-06 16:00:00;20,9;99530;50;0,0078;0,0;3,9;253;8,7;-1,06;-3,77;277;0;0;31,7;32,4;23,8;27,5;19,4;18,6;17,2;16,1;-16,5;44,5;1376
2021-07-06 17:00:00;20,1;99588;52;0,0077;0,0;2,3;238;6,6;-1,14;-1,92;173;0;0;31,5;32,3;23,8;27,5;19,2;18,6;17,2;16,1;-16,5;44,1;1347
2021-07-06 18:00:00;19,8;99612;56;0,0081;0,0;2,0;222;4,8;-1,29;-1,39;156;0;0;31,4;32,3;23,8;27,5;19,0;18,6;17,3;16,1;-16,5;43,5;1400
2021-07-06 19:00:00;18,3;99685;63;0,0083;0,0;1,1;233;2,9;-0,54;-0,84;43;0;0;31,3;32,3;23,8;27,6;18,7;18,5;17,3;16,1;-16,5;43,0;1337
2021-07-06 20:00:00;15,4;99802;71;0,0078;0,0;0,8;234;1,8;-0,46;-0,53;1;0;0;31,3;32,2;23,8;27,6;18,3;18,4;17,4;16,1;-16,5;43,0;1327
2021-07-06 21:00:00;13,4;99860;80;0,0076;0,0;1,1;213;1,8;-0,94;-0,57;0;0;0;31,3;32,2;23,8;27,6;17,7;18,2;17,4;16,1;-16,4;43,3;1290
2021-07-06 22:00:00;12,6;99882;84;0,0076;0,0;0,6;247;1,1;-0,21;-0,48;0;0;0;31,2;32,2;23,8;27,6;17,3;18,0;17,4;16,1;-16,4;43,5;1318
2021-07-06 23:00:00;12,5;99913;84;0,0076;0,0;0,5;259;1,1;-0,1;-0,52;0;0;0;31,2;32,2;23,8;27,6;16,9;17,7;17,4;16,2;-16,4;43,9;1343
2021-07-07 00:00:00;12,1;99960;86;0,0076;0,0;0,7;232;1,5;-0,37;-0,45;0;0;0;31,1;32,1;23,8;27,6;16,5;17,5;17,4;16,2;-16,4;43,7;1306
2021-07-07 01:00:00;12,2;99967;86;0,0077;0,0;0,8;230;2,0;-0,47;-0,56;0;0;0;31,1;32,1;23,8;27,6;16,2;17,3;17,3;16,2;-16,4;43,1;1319
2021-07-07 02:00:00;12,0;99960;88;0,0077;0,0;0,6;224;1,2;-0,43;-0,41;0;0;0;31,1;32,1;23,8;27,7;16,0;17,1;17,3;16,2;-16,4;44,1;1339
2021-07-07 03:00:00;11,1;99980;90;0,0074;0,0;0,5;258;1,0;-0,01;-0,15;1;0;0;31,0;32,1;23,8;27,7;15,7;16,9;17,2;16,2;-16,4;44,2;1309
2021-07-07 04:00:00;13,3;100023;87;0,0083;0,0;0,7;246;1,9;-0,24;-0,6;20;0;0;31,0;32,0;23,8;27,7;15,6;16,7;17,1;16,2;-16,4;44,5;1374
2021-07-07 05:00:00;15,2;100048;89;0,0096;0,0;1,5;225;3,8;-0,94;-1,01;87;0;0;31,0;32,0;23,8;27,7;15,7;16,5;17,0;16,2;-16,4;44,9;1337
2021-07-07 06:00:00;16,5;100053;83;0,0097;0,0;1,7;221;4,8;-1,3;-1,14;214;0;0;30,9;32,0;23,8;27,7;15,9;16,4;16,9;16,2;-16,4;44,8;1329
2021-07-07 07:00:00;19,4;100068;71;0,01;0,0;2,2;216;5,1;-1,83;-1,3;454;0;0;30,8;32,0;23,8;27,7;16,2;16,4;16,8;16,2;-16,4;45,0;1264
2021-07-07 08:00:00;20,3;100090;64;0,0095;0,0;2,2;220;5,5;-1,67;-1,42;541;0;0;30,7;31,9;23,8;27,7;16,9;16,5;16,8;16,2;-16,5;44,8;1298
2021-07-07 09:00:00;20,4;100100;59;0,0088;0,0;2,7;224;7,0;-1,83;-1,72;419;0;0;30,6;31,9;23,8;27,7;17,8;16,7;16,7;16,2;-16,5;44,5;1214
2021-07-07 10:00:00;21,6;100092;55;0,0089;0,0;3,4;206;6,9;-3,02;-1,46;774;0;0;30,4;31,8;23,7;27,7;18,6;17,1;16,7;16,2;-16,6;44,3;1250
2021-07-07 11:00:00;21,8;100122;54;0,0087;0,0;2,0;245;6,2;-0,89;-1,76;512;0;0;30,3;31,8;23,7;27,6;19,7;17,5;16,7;16,2;-16,7;44,2;1316
2021-07-07 12:00:00;22,2;100132;52;0,0087;0,0;2,9;248;6,5;-0,98;-2,74;538;0;0;30,1;31,7;23,7;27,6;20,1;17,9;16,7;16,1;-16,7;44,2;1325
2021-07-07 13:00:00;22,4;100157;52;0,0088;0,0;2,8;260;6,3;-0,48;-2,72;497;0;0;30,0;31,7;23,7;27,6;20,2;18,3;16,8;16,1;-16,8;44,1;1169
2021-07-07 14:00:00;23,3;100132;47;0,0084;0,0;3,0;253;6,8;-0,76;-2,9;604;0;0;29,8;31,6;23,6;27,6;20,3;18,5;16,9;16,1;-16,8;44,1;1314
2021-07-07 15:00:00;23,8;100112;46;0,0084;0,0;2,0;229;4,8;-1,28;-1,44;570;0;0;29,6;31,6;23,6;27,6;20,4;18,7;17,0;16,1;-16,8;44,2;1243
2021-07-07 16:00:00;22,2;100128;50;0,0083;0,0;1,5;214;3,5;-1,27;-0,82;202;0;0;29,4;31,5;23,6;27,6;20,2;18,9;17,1;16,1;-16,9;43,6;1241
2021-07-07 17:00:00;21,2;100172;57;0,0089;0,0;2,3;310;3,8;1,43;-1,77;105;0;0;29,4;31,5;23,6;27,6;19,8;19,0;17,2;16,1;-16,8;43,6;1276
2021-07-07 18:00:00;20,4;100222;63;0,0094;0,0;1,5;320;2,5;1,16;-0,84;52;0;0;29,3;31,5;23,6;27,6;19,5;18,9;17,3;16,1;-16,8;43,0;1296
2021-07-07 19:00:00;18,2;100288;73;0,0095;0,0;0,8;239;1,1;-0,34;-0,4;18;0;0;29,3;31,5;23,6;27,6;19,1;18,8;17,4;16,1;-16,8;43,1;1300
2021-07-07 20:00:00;16,0;100380;82;0,0094;0,0;0,7;224;1,3;-0,56;-0,38;1;0;0;29,2;31,4;23,6;27,6;18,6;18,7;17,4;16,1;-16,7;42,9;1309
2021-07-07 21:00:00;15,1;100422;84;0,0089;0,0;0,7;212;1,4;-0,59;-0,35;0;0;0;29,2;31,4;23,6;27,7;18,2;18,5;17,5;16,1;-16,7;42,9;1249
2021-07-07 22:00:00;13,1;100482;87;0,0081;0,0;0,9;204;1,4;-0,83;-0,38;0;0;0;29,2;31,4;23,6;27,7;17,7;18,3;17,5;16,1;-16,7;42,2;1271
2021-07-07 23:00:00;12,8;100512;88;0,0081;0,0;1,0;224;2,1;-0,79;-0,55;0;0;0;29,2;31,3;23,6;27,7;17,3;18,0;17,5;16,1;-16,7;41,9;1281
2021-07-08 00:00:00;13,6;100518;89;0,0086;0,0;1,0;256;1,9;-0,21;-1,0;0;0;0;29,2;31,3;23,6;27,7;17,1;17,8;17,5;16,2;-16,7;42,1;1263
2021-07-08 01:00:00;13,1;100508;90;0,0084;0,0;0,6;215;1,1;-0,36;-0,32;0;0;0;29,1;31,3;23,6;27,7;16,9;17,6;17,4;16,2;-16,7;42,4;1268
2021-07-08 02:00:00;12,4;100505;90;0,008;0,0;0,9;224;1,6;-0,67;-0,42;0;0;0;29,1;31,3;23,6;27,7;16,7;17,4;17,4;16,2;-16,7;41,7;1280
2021-07-08 03:00:00;12,1;100508;90;0,0079;0,0;0,6;256;1,0;-0,13;-0,5;4;0;0;29,1;31,2;23,6;27,7;16,4;17,3;17,3;16,2;-16,7;41,8;1364
2021-07-08 04:00:00;12,6;100520;91;0,0082;0,0;0,8;247;1,4;-0,22;-0,67;32;0;0;29,1;31,2;23,6;27,8;16,2;17,1;17,2;16,2;-16,7;41,3;1323
2021-07-08 05:00:00;14,1;100515;91;0,0091;0,02;0,9;266;1,8;-0,07;-0,93;52;0;0;29,0;31,2;23,6;27,8;16,2;17,0;17,2;16,2;-16,7;41,0;1400
2021-07-08 06:00:00;15,8;100542;89;0,0099;0,06;1,3;262;2,8;-0,18;-1,33;174;0;0;29,0;31,2;23,6;27,8;16,4;16,9;17,1;16,2;-16,8;40,7;1278
2021-07-08 07:00:00;18,6;100560;78;0,0105;0,0;1,3;303;2,6;0,6;-0,89;316;0;0;29,0;31,2;23,6;27,8;16,8;16,8;17,0;16,2;-16,8;40,7;1251